Change the Weather History Date:

Tuesday, September 4, 2012

  Actual Average Record
Temperature  
Mean Temperature 58 °F -  
Max Temperature 64 °F 60 °F 71 °F (1999)
Min Temperature 51 °F 49 °F 46 °F (2011)
Degree Days  
Heating Degree Days 8    
Growing Degree Days 8 (Base 50)    
Moisture  
Dew Point 54 °F    
Average Humidity 81    
Maximum Humidity 100    
Minimum Humidity 53    
Precipitation  
Precipitation 0.00 in 0.13 in - ()
Sea Level Pressure  
Sea Level Pressure 30.31 in    
Wind  
Wind Speed 10 mph ()    
Max Wind Speed 18 mph    
Max Gust Speed -    
Visibility 6.2 miles    
Events      
Averages and records for this station are not official NWS values.
T = Trace of Precipitation, MM = Missing Value Source: Averaged Metar Reports

Daily Weather History Graph

Daily Weather History Graph

Search for Another Location

Airport or City:

Trip Planner

Search our weather history database for the weather conditions in past years. The results will help you decide how hot, cold, wet, or windy it might be!

Date:

Astronomy

Sep. 04, 2012 Rise Set
Actual Time 6:51 AM IST 8:13 PM IST
Civil Twilight 6:16 AM IST 8:47 PM IST
Nautical Twilight 5:33 AM IST 9:30 PM IST
Astronomical Twilight 4:47 AM IST 10:16 PM IST
Moon 9:18 PM IST (9/4) 11:22 AM IST (9/4)
Length of Visible Light 14h 31m
Length of Day
13h 21m
Waning Gibbous, 85% of the Moon is Illuminated
Sep 4
Waning Gibbous
Sep 8
Last Quarter
Sep 16
New
Sep 22
First Quarter
Sep 30
Full

Hourly Weather History & Observations

Time (IST) Temp. Dew Point Humidity Pressure Visibility Wind Dir Wind Speed Gust Speed Precip Events Conditions
12:00 AM 59.0 °F 59.0 °F 100% 30.27 in 6.2 mi SW 9.2 mph - N/A   Mostly Cloudy
12:30 AM 59.0 °F 59.0 °F 100% 30.27 in 6.2 mi WSW 8.1 mph - N/A   Mostly Cloudy
1:00 AM 59 °F 59 °F 100% 30.27 in 7 mi SW 6.7 mph - -   Mist
1:00 AM 59.0 °F 59.0 °F 100% 30.27 in 6.2 mi SW 5.8 mph - N/A   Mostly Cloudy
1:30 AM 59.0 °F 59.0 °F 100% 30.24 in 6.2 mi WSW 6.9 mph - N/A   Mostly Cloudy
2:00 AM 59.0 °F 59.0 °F 100% 30.24 in 3.7 mi WSW 5.8 mph - N/A   Mostly Cloudy
2:30 AM 59.0 °F 59.0 °F 100% 30.24 in 0.7 mi SW 5.8 mph - N/A   Mostly Cloudy
3:00 AM 59.0 °F 59.0 °F 100% 30.24 in 1.0 mi WSW 5.8 mph - N/A   Mostly Cloudy
3:30 AM 59.0 °F 59.0 °F 100% 30.24 in 2.2 mi WSW 5.8 mph - N/A   Mostly Cloudy
4:00 AM 59.0 °F 59.0 °F 100% 30.24 in 5.0 mi West 3.5 mph - N/A   Mostly Cloudy
4:30 AM 59.0 °F 59.0 °F 100% 30.24 in 6.2 mi SW 2.3 mph - N/A   Mostly Cloudy
5:00 AM 59.0 °F 59.0 °F 100% 30.24 in 6.2 mi SSW 5.8 mph - N/A   Mostly Cloudy
5:30 AM 59.0 °F 59.0 °F 100% 30.24 in 6.2 mi WNW 5.8 mph - N/A   Mostly Cloudy
6:00 AM 60.8 °F 60.8 °F 100% 30.24 in 6.2 mi NW 8.1 mph - N/A   Mostly Cloudy
6:30 AM 60.8 °F 60.8 °F 100% 30.24 in 6.2 mi NW 11.5 mph - N/A   Mostly Cloudy
7:00 AM 59 °F 59 °F 99% 30.27 in 10 mi NNW 15.7 mph - -   Mist
7:00 AM 59.0 °F 59.0 °F 100% 30.27 in 6.2 mi NNW 15.0 mph - N/A   Mostly Cloudy
7:30 AM 57.2 °F 57.2 °F 100% 30.27 in 6.2 mi NNW 17.3 mph - N/A   Mostly Cloudy
8:00 AM 59.0 °F 55.4 °F 88% 30.27 in 6.2 mi NNW 15.0 mph - N/A   Mostly Cloudy
8:30 AM 59.0 °F 55.4 °F 88% 30.30 in 6.2 mi North 12.7 mph - N/A   Mostly Cloudy
9:00 AM 59.0 °F 55.4 °F 88% 30.30 in 6.2 mi NNW 13.8 mph - N/A   Mostly Cloudy
9:30 AM 59.0 °F 55.4 °F 88% 30.30 in 6.2 mi North 12.7 mph - N/A   Mostly Cloudy
10:00 AM 60.8 °F 55.4 °F 82% 30.30 in 6.2 mi NNW 17.3 mph - N/A   Mostly Cloudy
10:30 AM 60.8 °F 53.6 °F 77% 30.30 in 6.2 mi NNW 17.3 mph - N/A   Scattered Clouds
11:00 AM 60.8 °F 51.8 °F 72% 30.33 in 6.2 mi NNW 16.1 mph - N/A   Scattered Clouds
11:30 AM 60.8 °F 53.6 °F 77% 30.33 in 6.2 mi NNW 16.1 mph - N/A   Scattered Clouds
12:00 PM 62.6 °F 51.8 °F 68% 30.33 in 6.2 mi NNW 17.3 mph - N/A   Mostly Cloudy
12:30 PM 60.8 °F 50.0 °F 68% 30.33 in 6.2 mi North 15.0 mph - N/A   Mostly Cloudy
1:00 PM 60 °F 49 °F 59% 30.35 in 19 mi NNW 15.7 mph - -   Scattered Clouds
1:00 PM 60.8 °F 50.0 °F 68% 30.33 in 6.2 mi NNW 16.1 mph - N/A   Mostly Cloudy
1:30 PM 62.6 °F 51.8 °F 68% 30.33 in 6.2 mi NNW 15.0 mph - N/A   Mostly Cloudy
2:00 PM 62.6 °F 51.8 °F 68% 30.33 in 6.2 mi NNW 15.0 mph - N/A   Mostly Cloudy
2:30 PM 62.6 °F 50.0 °F 63% 30.33 in 6.2 mi North 12.7 mph - N/A   Scattered Clouds
3:00 PM 64.4 °F 51.8 °F 64% 30.33 in 6.2 mi NNW 15.0 mph - N/A   Scattered Clouds
3:30 PM 64.4 °F 50.0 °F 59% 30.33 in 6.2 mi NNW 17.3 mph - N/A   Scattered Clouds
4:00 PM 64.4 °F 50.0 °F 59% 30.33 in 6.2 mi NNW 17.3 mph - N/A   Scattered Clouds
4:30 PM 64.4 °F 48.2 °F 56% 30.33 in 6.2 mi NNW 15.0 mph - N/A   Partly Cloudy
5:00 PM 64.4 °F 50.0 °F 59% 30.33 in 6.2 mi NNW 15.0 mph - N/A   Scattered Clouds
5:30 PM 62.6 °F 48.2 °F 59% 30.33 in 6.2 mi NNW 16.1 mph - N/A   Partly Cloudy
6:00 PM 62.6 °F 48.2 °F 59% 30.33 in 6.2 mi NNW 18.4 mph - N/A   Scattered Clouds
6:30 PM 60.8 °F 48.2 °F 63% 30.36 in 6.2 mi NNW 17.3 mph - N/A   Scattered Clouds
7:00 PM 61 °F 48 °F 53% 30.36 in 22 mi NNW 13.4 mph - -   Scattered Clouds
7:00 PM 60.8 °F 48.2 °F 63% 30.36 in 6.2 mi NNW 13.8 mph - N/A   Scattered Clouds
7:30 PM 59.0 °F 48.2 °F 67% 30.36 in 6.2 mi NNW 16.1 mph - N/A   Partly Cloudy
8:00 PM 57.2 °F 48.2 °F 72% 30.36 in - NNW 17.3 mph - N/A   Clear
8:30 PM 57.2 °F 48.2 °F 72% 30.36 in - NNW 11.5 mph - N/A   Clear
9:00 PM 55.4 °F 48.2 °F 77% 30.39 in - NNW 10.4 mph - N/A   Clear
9:30 PM 55.4 °F 48.2 °F 77% 30.39 in - NNW 9.2 mph - N/A   Clear
10:00 PM 53.6 °F 48.2 °F 82% 30.39 in - NNW 9.2 mph - N/A   Clear
10:30 PM 53.6 °F 50.0 °F 88% 30.39 in - NNW 9.2 mph - N/A   Clear
11:00 PM 51.8 °F 50.0 °F 94% 30.39 in - NW 10.4 mph - N/A   Clear
11:30 PM 51.8 °F 48.2 °F 88% 30.39 in - NNW 11.5 mph - N/A   Clear